GSAT0207 (GALILEO 15)

Last updated on Feb. 22, 2020, 4:51 a.m. UTC

1 41859U 16069A   20052.71175788 -.00000031  00000-0  00000+0 0  9996
2 41859  54.6349 165.0836 0003493 296.3009  63.6276  1.70473826 20298
UTC
Height (km)
Latitude
Longitude
Inclination
Orbital Period
UTC large
Height (km)
Speed (km/s)
/
Latitude / Longitude
Inclination (degrees)
Orbital Period (minutes)
Azimuth
Elevation
Range (km)
Doppler Factor
iOS Compass Heading
iOS Angle

Next 30 passes for location: Hong Kong

Rise time Rise Azimuth (degrees) Set time Set Azimuth (degrees) Duration Max altitude (degrees)

No matching passes for this satellites